Helicity
253 246 248 243 241 218 196 154 132 159 188 200 160 141 90 61 62 74 79 88 121 128 112 73 62 50 43 35 31 25 23 31 26 31 53 51 54 39
259 266 253 225 226 224 217 210 226 217 167 132 154 123 92 82 94 89 78 106 117 122 85 61 51 58 63 37 32 39 39 46 56 69 71 72 59 38
215 189 217 222 245 211 186 210 170 118 115 118 110 98 108 89 86 89 95 100 100 80 60 65 78 63 48 51 48 46 60 68 73 76 72 62 63 61
221 190 224 242 258 258 208 146 92 96 82 95 97 101 94 85 85 101 93 91 79 61 57 71 90 69 66 59 56 74 72 76 78 75 65 61 64 72
225 220 215 181 175 122 90 80 89 87 89 85 84 86 80 93 87 88 88 76 81 52 64 97 81 73 77 77 71 78 84 68 61 54 59 80 73 69
195 192 176 134 91 81 77 81 96 101 97 94 88 78 88 89 94 89 91 92 121 90 75 78 65 68 89 97 93 81 69 51 63 59 80 64 69 65
107 98 90 84 81 78 83 91 88 86 87 87 89 98 96 86 84 80 86 89 107 90 60 114 107 104 86 80 61 66 71 133 80 75 73 93 93 92
97 94 84 90 90 104 98 90 82 85 87 86 83 91 84 82 81 92 91 93 105 69 73 120 86 73 96 107 58 66 132 105 84 81 101 92 89 93
65 50 62 75 97 83 73 77 75 69 74 89 85 88 92 93 93 101 99 89 92 112 102 89 86 90 107 115 54 83 120 102 93 96 102 76 87 87
65 70 70 71 82 90 83 85 93 91 91 82 71 61 70 68 85 87 96 87 80 89 100 102 84 89 104 95 32 78 93 101 98 95 78 80 95 82
70 60 77 87 88 88 90 95 103 106 85 86 80 90 116 128 154 103 99 89 84 78 50 61 85 79 51 49 56 70 69 86 94 91 73 79 77 45
71 79 90 78 85 96 95 93 104 86 82 104 119 130 139 124 130 114 95 83 68 41 59 72 74 48 15 41 91 94 95 82 67 68 72 74 45 62
59 62 66 85 89 85 106 96 84 90 111 106 104 98 92 100 95 94 88 81 78 86 77 88 97 74 100 97 115 93 93 97 88 71 33 39 42 42
59 63 73 85 92 101 88 98 110 117 93 89 89 91 101 111 105 85 75 66 72 81 89 96 122 99 107 105 101 109 86 100 69 63 71 49 25 24
70 68 89 97 97 94 95 101 96 76 79 96 109 100 87 84 77 75 91 90 106 109 117 115 107 100 136 142 137 114 68 70 52 50 56 70 73 87
90 75 67 81 98 100 92 79 82 92 106 101 83 67 70 84 87 79 80 86 98 132 112 103 97 110 111 114 116 95 101 85 79 75 75 60 84 94
70 82 104 117 118 104 105 113 112 110 95 83 80 78 82 84 81 78 81 91 99 101 98 91 86 94 99 121 117 117 88 83 92 98 66 41 107 85
84 95 103 112 119 109 107 107 103 100 94 83 80 78 79 78 78 81 91 89 93 98 91 70 70 49 84 62 49 75 84 70 75 82 99 74 85 85
88 88 110 115 107 111 110 102 96 93 80 76 78 83 81 77 72 85 84 95 97 101 85 71 65 69 69 81 136 77 71 82 74 66 87 113 120 105
103 121 126 119 106 109 98 88 80 77 78 80 88 90 80 74 81 81 81 76 86 63 70 86 69 72 81 94 129 129 92 105 82 68 52 97 121 85
116 120 106 99 91 93 78 73 81 83 86 90 91 86 75 71 74 83 78 41 30 68 54 59 66 23 101 120 80 87 95 46 45 50 61 84 105 100
115 111 96 89 85 91 86 82 89 90 95 93 87 81 71 68 70 75 77 71 63 63 67 86 102 96 98 90 81 83 87 87 12 26 40 33 56 66
112 111 104 109 91 84 91 99 102 102 98 89 82 71 63 58 65 69 67 61 71 57 66 80 97 101 121 81 42 87 84 71 25 12 29 6 21 22
Wind_Speed
17 18 22 24 27 28 31 36 40 48 51 52 51 49 51 55 61 64 67 69 70 71 73 74 74 75 74 75 78 78 79 80 80 82 83 83 85 85
7 11 18 17 23 29 33 36 41 45 50 49 46 51 55 61 60 64 66 68 70 73 73 71 73 72 74 76 76 76 77 79 80 82 83 84 82 79
6 8 13 19 24 28 34 37 39 40 46 44 47 54 59 61 63 63 65 68 71 73 70 72 71 74 75 75 75 75 77 78 80 82 82 79 79 79
7 12 21 25 31 33 34 35 37 39 42 50 53 58 59 59 59 63 68 67 73 70 72 65 69 75 74 76 75 77 77 78 79 80 78 79 80 79
18 22 23 24 24 25 27 29 35 40 46 49 54 55 56 58 63 66 68 70 71 70 63 62 76 74 76 75 74 76 78 79 75 76 77 80 79 81
17 17 19 22 23 25 28 33 39 43 48 51 53 57 58 60 62 70 75 69 73 64 60 72 72 71 73 76 77 76 77 72 73 76 78 79 80 81
12 15 18 22 26 29 32 37 42 46 48 52 55 58 61 65 68 67 72 73 70 55 73 72 71 66 72 76 73 73 70 74 79 77 78 81 83 82
14 17 20 23 28 33 37 39 42 45 49 53 54 58 60 63 63 68 69 73 71 57 77 75 67 70 77 74 73 68 67 82 78 81 80 85 84 83
13 18 24 27 32 36 37 39 41 41 46 46 54 56 59 59 57 62 63 68 69 69 71 72 69 77 73 71 67 62 75 81 84 80 85 84 80 83
17 21 25 30 34 39 41 41 45 47 45 47 50 52 49 48 50 55 58 63 64 66 67 67 73 74 75 67 60 68 83 86 81 84 81 81 82 87
21 25 27 32 38 42 42 43 43 46 48 50 52 50 53 52 56 58 64 70 74 76 57 74 75 79 71 59 58 84 77 79 82 82 80 77 87 91
24 28 32 36 39 42 42 42 44 48 49 50 52 52 52 54 56 56 62 68 73 71 61 80 74 79 69 55 83 72 74 77 80 77 74 86 88 74
25 31 35 39 41 43 42 43 45 45 49 51 51 51 53 56 55 56 58 62 68 66 67 69 68 70 62 76 71 74 76 76 70 67 74 82 79 78
28 30 36 40 40 40 42 45 47 48 49 52 52 54 57 61 60 58 59 61 56 60 62 60 60 65 68 76 76 73 75 73 64 69 75 73 76 74
29 32 35 36 39 41 45 46 46 47 51 54 57 58 58 56 56 59 57 59 57 56 58 59 60 61 58 59 63 68 73 66 61 77 74 74 71 63
30 33 34 37 41 43 44 44 45 49 55 55 55 55 55 56 59 60 63 63 63 62 60 60 60 60 61 54 53 57 58 59 69 69 71 74 64 54
32 35 38 40 42 42 45 48 50 50 52 53 55 56 57 59 60 60 60 62 63 65 68 68 65 63 53 44 45 53 52 58 58 55 70 74 57 52
34 37 38 39 41 44 47 49 49 51 51 52 53 54 57 59 60 59 58 59 61 64 68 71 74 75 67 56 46 54 55 51 48 46 48 53 48 47
36 35 37 39 42 46 48 48 49 49 50 51 52 54 56 57 58 58 58 59 61 62 67 67 68 69 71 69 51 47 57 46 40 24 38 38 33 27
37 38 39 40 42 46 46 47 47 49 49 50 51 53 54 55 55 55 58 59 57 63 67 62 63 63 58 54 45 31 39 44 40 18 12 25 24 17
38 40 39 40 42 44 45 45 46 47 48 50 50 52 53 52 52 52 55 56 61 62 65 63 58 54 47 45 47 44 43 28 23 11 16 23 28 26
38 38 38 40 42 42 44 44 45 46 47 48 49 50 49 49 48 50 51 55 59 56 50 45 42 50 55 51 34 31 33 31 27 12 49 32 29 27
37 36 38 42 42 43 43 43 44 44 46 47 49 47 46 46 45 45 48 55 53 50 46 45 47 51 49 21 18 22 24 18 14 22 9 28 9 6
Wind_Direction
260 274 283 296 304 309 309 305 305 304 308 313 315 326 328 330 328 330 332 333 333 333 333 332 333 333 334 334 334 333 333 333 332 331 330 330 329 329
278 289 295 326 319 317 317 317 314 312 311 317 324 326 328 326 331 334 334 334 334 334 333 333 334 335 335 334 335 335 335 334 334 333 331 330 329 329
292 319 324 326 327 327 323 325 323 320 316 323 324 325 325 328 333 336 337 337 336 335 335 335 336 336 335 336 335 335 335 335 335 334 334 333 331 329
294 311 314 319 319 325 325 324 324 329 324 318 323 326 329 334 337 337 337 338 336 337 335 336 338 337 337 336 336 336 335 335 335 335 335 333 331 330
306 308 318 322 332 338 341 340 335 330 329 327 327 331 334 338 337 338 338 337 338 338 340 340 338 338 338 338 337 336 336 335 335 335 334 334 333 330
320 329 334 337 339 345 345 339 336 335 333 332 333 333 336 339 340 337 335 340 338 342 344 340 339 339 340 340 338 338 337 337 336 335 335 333 332 331
343 328 337 344 344 344 346 342 338 337 339 337 336 337 338 339 339 340 337 339 341 347 342 342 342 343 343 342 340 339 339 340 337 336 335 334 332 332
311 328 351 356 0 356 352 350 350 345 342 341 342 341 341 341 342 341 342 342 342 347 342 340 344 342 342 343 340 340 341 339 337 335 334 332 332 331
341 350 353 357 359 355 354 353 352 352 349 350 346 346 343 346 347 346 346 344 340 341 342 340 343 340 344 343 343 344 341 339 337 335 333 332 334 332
352 3 2 358 0 354 351 353 351 351 355 353 352 350 352 353 352 348 346 344 344 344 344 340 342 341 343 344 346 344 339 338 338 336 337 335 334 330
15 17 12 2 355 353 354 354 356 355 355 355 356 357 356 356 357 353 348 346 344 343 349 345 343 341 343 347 349 341 343 341 340 339 339 340 332 331
18 13 3 357 358 357 358 357 356 355 356 359 359 359 1 358 357 356 351 347 346 345 349 343 344 347 345 350 340 345 345 345 342 342 343 336 335 343
6 358 358 357 356 356 359 359 359 1 1 0 359 358 358 358 358 356 354 350 346 344 345 347 347 348 348 341 346 347 347 346 349 351 347 342 341 336
2 7 360 357 358 2 2 1 1 2 1 358 358 356 355 354 355 355 354 352 351 347 349 351 349 348 347 344 346 349 350 350 354 354 351 351 344 344
15 8 4 5 4 3 1 2 4 3 359 357 356 355 355 355 355 354 354 354 354 354 356 355 354 352 352 351 351 353 353 357 360 351 353 351 351 358
13 7 6 5 4 3 4 5 4 1 357 356 356 355 356 356 355 355 354 355 355 356 358 359 357 356 354 357 357 357 0 0 355 356 355 347 359 8
10 5 3 4 4 4 1 360 358 359 357 357 356 356 356 355 355 356 356 356 355 354 354 355 358 358 1 2 4 3 4 2 4 5 357 346 9 13
6 4 5 3 1 359 357 357 358 357 358 357 357 356 355 354 354 356 357 357 356 356 354 353 352 354 0 9 16 8 7 9 10 12 13 9 15 19
3 4 2 1 360 359 357 357 356 357 357 357 356 356 356 355 355 356 357 357 357 357 355 357 359 360 359 1 11 19 8 13 15 12 19 21 21 23
1 359 358 359 359 357 356 356 356 356 356 356 356 356 356 356 356 357 357 357 359 357 353 2 4 5 8 9 9 9 19 16 19 6 356 29 32 43
357 356 357 357 356 356 355 355 355 355 356 355 356 356 356 357 358 359 359 359 355 355 354 360 8 10 13 14 15 16 20 27 23 13 31 39 40 51
353 354 354 354 352 353 354 354 353 354 354 355 354 355 357 358 359 -0 2 360 356 1 8 14 17 15 14 17 18 19 21 28 297 286 26 49 54 57
350 351 352 351 351 351 352 351 351 352 353 353 354 356 358 359 1 4 2 356 2 8 13 16 15 16 18 19 11 21 27 27 311 288 265 294 109 241